GW4085 Weather Reports


Display with metric or nautical units.
time (UTC)temp
F
wind
direction
speed
MPH
gust
MPH
rain 1hr
in
rain 24hr
in
rain mn
in
humidity
%
barometer
mb
20260505204328 49 2 3.0 5.0 0.00 0.15 0.15 88 1009.3
20260505203825 49 35 5.0 7.0 0.00 0.15 0.15 88 1009.3
20260505203321 49 313 5.0 8.0 0.00 0.15 0.15 88 1009.8
20260505202818 49 20 4.0 6.0 0.00 0.15 0.15 89 1010.0
20260505202314 50 336 3.0 5.0 0.00 0.15 0.15 90 1009.7
20260505201811 49 357 4.0 5.0 0.00 0.15 0.15 90 1009.3
20260505201308 49 358 5.0 8.0 0.00 0.15 0.15 91 1009.2
20260505200807 49 5 4.0 7.0 0.00 0.15 0.15 93 1008.7
20260505200303 49 4 4.0 9.0 0.00 0.15 0.15 94 1008.8
20260505195758 50 26 5.0 9.0 0.00 0.15 0.15 95 1008.8
20260505195256 50 165 2.0 3.0 0.00 0.15 0.15 96 1009.0
20260505194753 50 327 3.0 7.0 0.00 0.15 0.15 95 1008.7
20260505194250 50 11 7.0 8.0 0.00 0.15 0.15 95 1009.2
20260505193745 50 352 3.0 7.0 0.00 0.15 0.15 95 1009.0
20260505193243 50 359 5.0 7.0 0.00 0.15 0.15 94 1009.4
20260505192741 51 327 7.0 9.0 0.00 0.15 0.15 93 1009.4
20260505192239 51 1 5.0 8.0 0.00 0.15 0.15 92 1009.4
20260505191737 51 350 3.0 6.0 0.00 0.15 0.15 91 1009.4
20260505191235 52 343 3.0 6.0 0.00 0.15 0.15 90 1009.2
20260505190731 52 347 2.0 6.0 0.00 0.15 0.15 89 1009.0
20260505190231 52 342 7.0 10.0 0.00 0.15 0.15 88 1009.0
20260505185728 52 2 4.0 6.0 0.00 0.15 0.15 88 1008.9
20260505185224 53 25 5.0 9.0 0.00 0.15 0.15 86 1008.7
20260505184720 53 56 4.0 7.0 0.00 0.15 0.15 86 1008.7
20260505184218 53 54 2.0 6.0 0.00 0.15 0.15 85 1008.7
20260505183714 53 32 2.0 5.0 0.00 0.15 0.15 86 1009.0
20260505183212 53 347 5.0 8.0 0.00 0.15 0.15 85 1009.0
20260505182708 53 320 4.0 6.0 0.00 0.15 0.15 85 1009.2
20260505182205 53 329 4.0 6.0 0.00 0.15 0.15 85 1008.9
20260505181701 53 15 3.0 3.0 0.00 0.15 0.15 86 1009.0
20260505181159 53 355 3.0 7.0 0.00 0.15 0.15 86 1008.8
20260505180655 54 19 2.0 5.0 0.00 0.15 0.15 86 1008.5
20260505180153 53 354 7.0 11.0 0.00 0.15 0.15 86 1008.9
20260505175648 54 339 3.0 6.0 0.00 0.15 0.15 85 1008.5
20260505175145 55 10 4.0 6.0 0.00 0.15 0.15 84 1008.5
20260505174642 55 301 3.0 8.0 0.00 0.15 0.15 82 1008.8
20260505174138 55 16 3.0 6.0 0.00 0.15 0.15 82 1008.4
20260505173635 56 342 6.0 8.0 0.00 0.15 0.15 81 1008.7
20260505173131 56 349 5.0 7.0 0.00 0.15 0.15 81 1008.6
20260505172629 56 352 3.0 8.0 0.00 0.15 0.15 82 1008.6
20260505172126 56 24 3.0 8.0 0.00 0.15 0.15 83 1008.8
20260505171620 55 349 5.0 6.0 0.00 0.15 0.15 82 1008.9
20260505171112 55 44 2.0 6.0 0.00 0.15 0.15 83 1008.7
20260505170609 55 9 2.0 6.0 0.00 0.15 0.15 84 1008.5
20260505170106 55 354 5.0 10.0 0.00 0.15 0.15 83 1008.7
20260505165600 55 29 4.0 6.0 0.00 0.15 0.15 83 1008.6
20260505165056 55 358 4.0 6.0 0.00 0.15 0.15 83 1008.6
20260505164552 55 325 5.0 7.0 0.00 0.15 0.15 83 1008.6
20260505164050 55 316 5.0 8.0 0.00 0.15 0.15 83 1008.3
20260505163543 56 359 5.0 9.0 0.00 0.15 0.15 83 1008.3
20260505163039 56 29 4.0 8.0 0.00 0.15 0.15 83 1008.3
20260505162532 56 271 8.0 9.0 0.00 0.15 0.15 82 1008.4
20260505162030 56 355 6.0 9.0 0.00 0.15 0.15 83 1008.5
20260505161526 56 16 3.0 6.0 0.00 0.15 0.15 83 1008.3
20260505161023 56 84 3.0 5.0 0.00 0.15 0.15 83 1008.6
20260505160521 57 113 3.0 7.0 0.00 0.15 0.15 83 1008.7
20260505152957 58 313 2.0 6.0 0.00 0.15 0.15 82 1008.2
20260505152454 58 353 4.0 7.0 0.00 0.15 0.15 82 1007.9
20260505151949 58 293 5.0 7.0 0.00 0.15 0.15 82 1008.0
20260505151445 59 333 3.0 5.0 0.00 0.15 0.15 82 1007.6
20260505150942 59 338 3.0 6.0 0.00 0.15 0.15 82 1007.7
20260505150439 59 55 2.0 5.0 0.00 0.15 0.15 83 1007.3
20260505140409 56 166 1.0 2.0 0.00 0.15 0.15 87 1007.9
20260505124823 57 43 2.0 3.0 0.00 0.15 0.15 90 1007.3
20260505124320 58 139 1.0 1.0 0.00 0.15 0.15 91 1007.5
20260505123816 58 10 3.0 3.0 0.00 0.15 0.15 92 1007.0
20260505123313 57 182 0.0 5.0 0.00 0.15 0.15 93 1007.3
20260505122809 57 330 2.0 3.0 0.00 0.15 0.15 93 1006.9
20260505122306 57 12 2.0 3.0 0.00 0.15 0.15 94 1007.0
20260505121802 57 4 1.0 5.0 0.00 0.15 0.15 95 1006.8
20260505121259 58 138 1.0 1.0 0.00 0.15 0.15 95 1006.6
20260505120755 57 351 2.0 2.0 0.00 0.15 0.15 95 1006.1
20260505120252 57 348 3.0 3.0 0.00 0.15 0.15 94 1006.3
20260505115750 57 347 2.0 5.0 0.00 0.15 0.15 94 1006.8
20260505115248 57 93 1.0 3.0 0.00 0.15 0.15 94 1006.6
20260505114745 57 21 0.0 0.0 0.00 0.15 0.15 95 1006.6
20260505114241 57 24 0.0 0.0 0.00 0.15 0.15 95 1006.5
20260505113738 58 25 0.0 0.0 0.00 0.15 0.15 96 1006.5
20260505113235 58 52 0.0 1.0 0.00 0.15 0.15 96 1006.9
20260505112731 58 58 0.0 0.0 0.00 0.15 0.15 96 1006.8
20260505112229 59 306 0.0 0.0 0.00 0.15 0.15 96 1006.1
20260505111728 59 347 0.0 0.0 0.05 0.15 0.15 96 1006.1
20260505111225 59 42 0.0 3.0 0.05 0.15 0.15 96 1006.2
20260505110720 60 173 0.0 0.0 0.00 0.14 0.14 97 1005.8
20260505110218 60 334 0.0 2.0 0.00 0.14 0.14 97 1005.7
20260505102154 60 161 0.0 1.0 0.00 0.13 0.13 95 1006.2
20260505101652 60 168 0.0 2.0 0.07 0.13 0.13 94 1006.0
20260505101148 60 112 1.0 2.0 0.07 0.13 0.13 94 1006.2
20260505100644 60 53 1.0 5.0 0.00 0.12 0.12 93 1006.1
20260505100142 60 138 2.0 5.0 0.00 0.12 0.12 92 1006.3
20260505095637 60 61 3.0 3.0 0.00 0.12 0.12 92 1006.0
20260505095135 60 178 0.0 1.0 0.00 0.12 0.12 91 1005.6
20260505094631 60 187 0.0 1.0 0.00 0.12 0.12 90 1005.1
20260505094127 61 162 0.0 2.0 0.00 0.12 0.12 89 1005.4
20260505093624 61 186 2.0 5.0 0.05 0.12 0.12 88 1005.2
20260505093121 61 181 5.0 7.0 0.05 0.12 0.12 87 1005.1
20260505092618 62 199 3.0 5.0 0.00 0.11 0.11 85 1004.9
20260505092117 62 189 3.0 7.0 0.00 0.11 0.11 83 1004.8
20260505091613 61 160 4.0 6.0 0.00 0.11 0.11 84 1004.7
20260505091111 60 175 2.0 6.0 0.00 0.11 0.11 88 1004.6
20260505090609 61 163 1.0 7.0 0.00 0.11 0.11 88 1004.5
20260505090107 60 203 4.0 9.0 0.00 0.11 0.11 90 1003.8
20260505085604 60 177 5.0 9.0 0.00 0.11 0.11 92 1003.2
20260505085102 59 193 3.0 14.0 0.00 0.11 0.11 95 1003.6
20260505084600 60 177 7.0 9.0 0.07 0.11 0.11 97 1003.6
20260505084058 60 199 3.0 7.0 0.05 0.10 0.10 97 1004.4
20260505083555 60 193 7.0 14.0 0.05 0.10 0.10 96 1005.1
20260505083051 60 176 6.0 10.0 0.07 0.09 0.09 96 1005.7
20260505082547 60 181 4.0 5.0 0.07 0.09 0.09 96 1006.1
20260505082044 61 171 3.0 5.0 0.05 0.08 0.08 96 1006.0
20260505081540 61 165 3.0 5.0 0.07 0.07 0.07 96 1006.2
20260505081038 61 265 4.0 9.0 0.07 0.07 0.07 96 1005.8
20260505080534 61 175 2.0 5.0 0.05 0.06 0.06 96 1006.0
20260505080031 61 320 3.0 8.0 0.12 0.06 0.06 95 1006.1
20260505075527 61 199 3.0 10.0 0.07 0.05 0.05 95 1005.9
20260505075024 61 182 3.0 16.0 0.05 0.04 0.04 94 1005.9
20260505074521 62 255 3.0 13.0 0.07 0.03 0.03 92 1005.7
20260505074018 62 190 6.0 8.0 0.07 0.03 0.03 91 1005.8
20260505073515 62 183 6.0 10.0 0.05 0.02 0.02 89 1005.8
20260505073014 63 176 7.0 11.0 0.05 0.02 0.02 88 1006.0
20260505072509 63 207 2.0 5.0 0.07 0.01 0.01 85 1005.8
20260505072005 64 113 5.0 8.0 0.00 0.00 0.00 84 1005.6
20260505071501 64 185 10.0 13.0 0.00 0.00 0.00 80 1005.9
20260505070959 64 193 6.0 10.0 0.00 0.00 0.00 80 1006.0
20260505070456 65 170 3.0 6.0 0.00 0.00 0.00 78 1005.9
20260505065951 65 199 5.0 7.0 0.00 0.00 0.00 78 1005.6
20260505065448 64 187 1.0 3.0 0.00 0.00 0.00 78 1005.7
20260505064945 65 184 1.0 6.0 0.00 0.00 0.00 78 1005.6
20260505064442 65 183 1.0 3.0 0.00 0.00 0.00 77 1005.3
20260505063940 65 191 3.0 7.0 0.00 0.00 0.00 77 1005.7
20260505063436 65 189 1.0 2.0 0.00 0.00 0.00 77 1005.9
20260505062933 65 163 1.0 3.0 0.00 0.00 0.00 78 1005.7
20260505062430 64 189 4.0 5.0 0.00 0.00 0.00 78 1006.0
20260505061926 64 191 2.0 3.0 0.00 0.00 0.00 78 1006.1
20260505061425 64 187 4.0 5.0 0.00 0.00 0.00 78 1005.9
20260505060922 64 186 3.0 5.0 0.00 0.00 0.00 77 1006.2
20260505060419 64 166 1.0 3.0 0.00 0.00 0.00 77 1006.1
20260505055915 64 178 0.0 2.0 0.00 0.00 0.00 78 1006.0
20260505055412 64 187 2.0 5.0 0.00 0.00 0.00 77 1005.8
20260505054908 64 180 4.0 8.0 0.00 0.00 0.00 77 1005.9
20260505054406 64 174 0.0 6.0 0.00 0.00 0.00 77 1005.9
20260505053904 64 187 1.0 2.0 0.00 0.00 0.00 77 1006.0
20260505053401 64 175 0.0 5.0 0.00 0.00 0.00 77 1006.2
20260505052857 64 168 1.0 3.0 0.00 0.00 0.00 76 1006.1
20260505052354 64 194 1.0 2.0 0.00 0.00 0.00 77 1006.2
20260505051851 64 152 0.0 5.0 0.00 0.00 0.00 77 1006.0
20260505051348 65 139 2.0 5.0 0.00 0.00 0.00 76 1005.9
20260505050847 65 177 1.0 7.0 0.00 0.00 0.00 76 1006.1
20260505050345 65 189 4.0 5.0 0.00 0.00 0.00 76 1006.2
20260505041312 65 169 2.0 2.0 0.00 0.00 0.00 75 1006.7
20260505040809 66 182 1.0 2.0 0.00 0.00 0.00 74 1006.7
20260505040307 66 191 1.0 1.0 0.00 0.00 0.00 73 1006.9
20260505035803 66 181 1.0 2.0 0.00 0.00 0.00 73 1007.2
20260505035259 66 161 3.0 5.0 0.00 0.00 0.00 72 1007.0
20260505034756 66 191 3.0 3.0 0.00 0.00 0.00 72 1007.2
20260505034253 67 182 2.0 3.0 0.00 0.00 0.00 72 1007.2
20260505033749 67 183 1.0 2.0 0.00 0.00 0.00 72 1007.5
20260505033247 67 156 1.0 5.0 0.00 0.00 0.00 71 1007.2
20260505032745 67 191 3.0 3.0 0.00 0.00 0.00 71 1007.4
20260505032241 67 174 2.0 5.0 0.00 0.00 0.00 71 1007.1
20260505031739 67 170 0.0 2.0 0.00 0.00 0.00 71 1007.2
20260505031235 68 160 1.0 3.0 0.00 0.00 0.00 71 1007.2
20260505030732 68 178 2.0 6.0 0.00 0.00 0.00 71 1007.1
20260505030228 68 184 2.0 3.0 0.00 0.00 0.00 71 1007.3
20260505025724 68 187 2.0 6.0 0.00 0.00 0.00 71 1007.2
20260505025222 68 185 1.0 5.0 0.00 0.00 0.00 71 1007.2
20260505024720 68 182 4.0 5.0 0.00 0.00 0.00 71 1007.1
20260505024217 68 179 4.0 6.0 0.00 0.00 0.00 71 1007.0
20260505023714 68 177 1.0 3.0 0.00 0.00 0.00 71 1006.9
20260505023211 68 170 1.0 3.0 0.00 0.00 0.00 71 1006.9
20260505022709 68 180 3.0 5.0 0.00 0.00 0.00 70 1006.9
20260505022205 68 197 2.0 5.0 0.00 0.00 0.00 71 1006.8
20260505021702 68 206 1.0 3.0 0.00 0.00 0.00 70 1006.7
20260505021159 68 179 1.0 1.0 0.00 0.00 0.00 70 1006.6
20260505020655 68 181 0.0 2.0 0.00 0.00 0.00 69 1006.7
20260505020151 69 167 1.0 2.0 0.00 0.00 0.00 69 1006.5
20260505015648 69 180 1.0 1.0 0.00 0.00 0.00 69 1006.5
20260505015144 69 188 1.0 2.0 0.00 0.00 0.00 68 1006.5
20260505014641 69 187 1.0 2.0 0.00 0.00 0.00 67 1006.6
20260505014138 69 185 0.0 0.0 0.00 0.00 0.00 67 1006.3
20260505013636 69 187 0.0 0.0 0.00 0.00 0.00 66 1006.2
20260505013133 69 189 1.0 1.0 0.00 0.00 0.00 66 1006.0
20260505012631 70 179 0.0 0.0 0.00 0.00 0.00 66 1006.0
20260505012128 70 171 0.0 1.0 0.00 0.00 0.00 65 1005.8
20260505011623 70 199 0.0 1.0 0.00 0.00 0.00 64 1005.9
20260505011121 71 183 0.0 1.0 0.00 0.00 0.00 63 1006.0
20260505010616 71 179 0.0 1.0 0.00 0.00 0.00 63 1005.7
20260505010113 71 170 1.0 2.0 0.00 0.00 0.00 63 1005.8
20260505005609 71 175 0.0 2.0 0.00 0.00 0.00 62 1005.7
20260505005107 71 192 0.0 1.0 0.00 0.00 0.00 62 1005.7
20260505004604 72 177 0.0 1.0 0.00 0.00 0.00 62 1005.6
20260505004100 72 182 1.0 2.0 0.00 0.00 0.00 60 1005.6
20260505003557 72 188 1.0 2.0 0.00 0.00 0.00 60 1005.7
20260505003055 73 173 1.0 3.0 0.00 0.00 0.00 59 1005.7
20260505002549 73 210 2.0 3.0 0.00 0.00 0.00 59 1005.6
20260505002043 73 169 2.0 2.0 0.00 0.00 0.00 58 1005.7
20260505001539 73 164 3.0 5.0 0.00 0.00 0.00 57 1005.2
20260505001037 74 194 3.0 6.0 0.00 0.00 0.00 56 1005.5
20260505000534 74 177 6.0 7.0 0.00 0.00 0.00 56 1005.4
20260505000032 74 153 3.0 5.0 0.00 0.00 0.00 57 1005.4
20260504235528 74 197 3.0 7.0 0.00 0.00 0.00 56 1005.6
20260504235025 75 218 3.0 7.0 0.00 0.00 0.00 56 1005.4
20260504234522 75 216 4.0 7.0 0.00 0.00 0.00 55 1005.5
20260504234019 76 175 3.0 6.0 0.00 0.00 0.00 55 1005.3
20260504233514 76 174 3.0 7.0 0.00 0.00 0.00 53 1005.1
20260504233011 77 178 3.0 8.0 0.00 0.00 0.00 54 1005.4
20260504232508 77 195 3.0 5.0 0.00 0.00 0.00 53 1005.4
20260504232006 77 207 6.0 13.0 0.00 0.00 0.00 52 1005.3
20260504231502 78 190 5.0 9.0 0.00 0.00 0.00 52 1005.4
20260504230958 78 199 2.0 6.0 0.00 0.00 0.00 53 1005.2
20260504230455 78 205 3.0 5.0 0.00 0.00 0.00 52 1005.2
20260504225954 78 194 3.0 11.0 0.00 0.00 0.00 52 1005.2
20260504225450 78 217 3.0 13.0 0.00 0.00 0.00 52 1005.3
20260504224947 78 199 4.0 5.0 0.00 0.00 0.00 52 1005.5
20260504224444 78 165 5.0 9.0 0.00 0.00 0.00 51 1005.4
20260504223941 79 177 3.0 9.0 0.00 0.00 0.00 51 1005.5
20260504223437 79 190 7.0 13.0 0.00 0.00 0.00 52 1005.4
20260504222933 79 183 8.0 15.0 0.00 0.00 0.00 51 1005.5
20260504222431 79 180 4.0 9.0 0.00 0.00 0.00 51 1005.4
20260504221928 80 139 9.0 15.0 0.00 0.00 0.00 50 1005.5
20260504221425 79 146 3.0 11.0 0.00 0.00 0.00 52 1005.4
20260504220922 79 205 3.0 14.0 0.00 0.00 0.00 52 1005.5
20260504220418 80 169 3.0 6.0 0.00 0.00 0.00 51 1005.5
20260504215916 79 175 3.0 13.0 0.00 0.00 0.00 51 1005.4
20260504215412 79 189 7.0 11.0 0.00 0.00 0.00 52 1005.4
20260504214908 79 182 5.0 8.0 0.00 0.00 0.00 53 1005.6
20260504214405 79 173 6.0 9.0 0.00 0.00 0.00 52 1005.7
20260504213902 79 194 5.0 10.0 0.00 0.00 0.00 52 1005.5
20260504213358 79 215 4.0 7.0 0.00 0.00 0.00 52 1005.6
20260504212856 79 169 7.0 8.0 0.00 0.00 0.00 52 1005.6
20260504212352 78 191 6.0 14.0 0.00 0.00 0.00 53 1005.9
20260504211850 78 136 3.0 18.0 0.00 0.00 0.00 52 1005.8
20260504211345 79 200 5.0 11.0 0.00 0.00 0.00 52 1005.6
20260504210843 79 156 7.0 10.0 0.00 0.00 0.00 51 1005.9
20260504210340 78 157 5.0 11.0 0.00 0.00 0.00 53 1005.7
20260504205837 78 187 5.0 13.0 0.00 0.00 0.00 51 1005.9
20260504205334 80 191 6.0 10.0 0.00 0.00 0.00 51 1006.1
20260504204832 79 22 4.0 10.0 0.00 0.00 0.00 53 1005.8